#timestamp,LO_Frequency,Hit,StdDev 
1551348015.9,286046995.5,P
1551348035.7,286046994.1,P
1551348055.5,286046994.3,P
1551348075.4,286046993.7,Y
1551348095.2,286046998.6,P
1551348115.1,286046999.9,N
1551348116.0,286046999.9,N
1551348135.8,286046996.5,N
1551348155.6,286046995.6,N
1551348175.5,286046994.4,N
1551348195.3,286046990.5,Y
1551348215.1,286046994.4,P
1551348235.9,286046989.2,P
1551348255.7,286046989.9,P
1551348275.6,286046983.8,Y
1551348295.4,286046992.6,P
1551348315.2,286046990.5,P
1551348335.1,286046993.0,P
1551348336.0,286046993.0,Y
1551348355.8,286046999.3,P
1551348375.7,286047000.2,N
1551348395.5,286047005.4,N
1551348415.3,286047005.5,N
1551348435.2,286047004.2,N
1551348455.0,286047001.5,N
1551348455.9,286047001.5,N
1551348475.7,286047004.1,N
1551348495.6,286047001.6,N
1551348515.4,286047002.5,N
1551348535.3,286047000.7,N
1551348555.1,286047002.5,N
1551348575.8,286046999.5,N
1551348595.7,286046995.9,N
1551348615.5,286046994.4,N
1551348635.4,286046994.3,N
1551348655.2,286046992.4,N
1551348675.0,286046996.4,N
1551348675.9,286046996.4,N
1551348695.8,286046997.5,N
1551348715.6,286046996.4,N
1551348735.5,286046992.7,N
1551348755.3,286046992.2,N
1551348775.1,286046989.4,N
1551348795.9,286046987.1,N
1551348815.7,286046982.5,Y
1551348835.6,286046985.6,P
1551348855.4,286046985.1,N
1551348875.2,286046982.9,N
1551348895.1,286046981.3,Y
1551348896.0,286046981.3,P
1551348915.8,286046995.9,N
1551348935.6,286046996.2,N
1551348955.5,286046993.7,N
1551348975.3,286046993.8,N
1551348995.2,286046993.4,N
1551349015.9,286046995.0,N
1551349035.7,286046995.3,N
1551349055.6,286046996.4,N
1551349075.4,286046990.8,N
1551349095.2,286046992.8,N
1551349115.1,286046997.2,N
1551349116.0,286046997.2,N
1551349135.8,286046995.7,N
1551349155.7,286046996.1,N
1551349175.5,286046991.9,N
1551349195.3,286046995.5,N
1551349215.2,286046996.4,N
1551349235.0,286046994.1,N
1551349235.9,286046994.1,N
1551349255.8,286046996.4,N
1551349275.6,286046994.5,N
1551349295.4,286046992.9,N
1551349315.3,286046993.3,N
1551349335.1,286046995.8,N
1551349355.8,286046996.2,N
1551349375.7,286046995.9,N
1551349395.5,286046991.7,N
1551349415.3,286046994.5,N
1551349435.2,286046992.1,N
1551349455.0,286046990.8,Y
1551349455.9,286046990.8,P
1551349475.8,286046999.6,N
1551349495.6,286046996.8,N
1551349515.4,286046995.8,N
1551349535.3,286046994.4,N
1551349555.1,286046994.2,N
1551349575.9,286046991.9,Y
1551349595.7,286046997.6,P
1551349615.5,286046992.2,P
1551349635.4,286046989.2,P
1551349655.2,286046986.7,Y
1551349675.0,286046990.7,P
1551349675.9,286046990.7,P
1551349695.8,286046992.1,P
1551349715.6,286046988.6,Y
1551349735.5,286046995.1,P
1551349755.3,286046996.5,N
1551349775.2,286046997.2,N
1551349795.9,286046994.9,N
1551349815.7,286046993.9,Y
1551349835.6,286047002.3,P
1551349855.4,286046998.8,N
1551349875.3,286046998.9,N
1551349895.1,286046995.0,N
1551349896.0,286046995.0,N
1551349915.8,286047000.7,N
1551349935.7,286046995.4,N
1551349955.5,286046994.0,N
1551349975.3,286046998.0,N
1551349995.2,286046995.6,N
1551350015.0,286046996.5,N
1551350015.9,286046996.5,N
1551350035.8,286046995.1,N
1551350055.6,286046994.3,N
1551350075.4,286046992.8,Y
1551350095.3,286046996.2,P
1551350115.1,286046995.8,P
1551350135.8,286046993.2,P
1551350155.7,286046992.4,Y
1551350175.5,286047001.2,P
1551350195.4,286046997.6,N
1551350215.2,286046995.2,N
1551350235.0,286046995.6,N
1551350235.9,286046995.6,N
1551350255.8,286046995.0,N
1551350275.6,286046996.8,N
1551350295.5,286046999.3,N
1551350315.3,286047001.0,N
1551350335.1,286047000.6,N
1551350355.9,286046996.1,N
1551350375.7,286046994.3,N
1551350395.5,286046990.7,Y
1551350415.4,286046990.1,P
1551350435.2,286046992.5,N
1551350455.1,286046995.9,N
1551350456.0,286046995.9,N
1551350475.8,286046993.4,N
1551350495.6,286046992.3,Y
1551350515.5,286046998.6,P
1551350535.3,286046994.9,N
1551350555.1,286046997.1,N
1551350575.9,286046997.8,N
1551350595.7,286047000.1,N
1551350615.6,286047000.1,N
1551350635.4,286047001.7,N
1551350655.2,286047002.6,N
1551350675.1,286046998.9,N
1551350676.0,286046998.9,N
1551350695.8,286046993.7,N
1551350715.7,286047001.1,N
1551350735.5,286047001.0,N
1551350755.3,286046993.5,N
1551350775.2,286046990.1,Y
1551350795.0,286046990.7,P
1551350795.9,286046990.7,N
1551350815.7,286046991.1,N
1551350835.6,286046989.2,Y
1551350855.4,286046995.7,P
1551350875.3,286046993.4,P
1551350895.1,286046990.6,P
1551350915.9,286046987.4,Y
1551350935.7,286046990.1,P
1551350955.5,286046993.2,P
1551350975.4,286046991.3,P
1551350995.2,286046987.0,Y
1551351015.0,286046996.0,P
1551351016.0,286046996.0,N
1551351035.8,286046996.4,N
1551351055.6,286046991.8,Y
1551351075.5,286046997.9,P
1551351095.3,286046997.8,N
1551351115.1,286047000.9,N
1551351135.9,286047002.7,N
1551351155.7,286047004.4,N
1551351175.6,286046998.1,N
1551351195.4,286046998.5,N
1551351215.2,286047001.0,N
1551351235.1,286046996.9,N
1551351236.0,286046996.9,N
1551351255.8,286047001.2,N
1551351275.7,286046997.6,N
1551351295.5,286046997.3,N
1551351315.3,286046997.4,N
1551351335.2,286046994.5,N
1551351355.0,286046988.8,Y
1551351355.9,286046988.8,P
1551351375.8,286046988.9,N
1551351395.6,286046988.9,N
1551351415.4,286046987.2,Y
1551351435.3,286046993.9,P
1551351455.1,286046994.5,P
1551351475.9,286046992.5,P
1551351495.7,286046992.0,Y
1551351515.5,286046997.0,P
1551351535.4,286046995.4,N
1551351555.2,286046995.2,N
1551351575.0,286047000.4,N
1551351576.0,286047000.4,N
1551351595.8,286047001.6,N
